FW4445 Weather Reports


Display with metric or nautical units.
time (UTC)temp
F
wind
direction
speed
MPH
gust
MPH
rain 1hr
in
rain 24hr
in
rain mn
in
humidity
%
barometer
mb
20260507013516 57 0 0.0 0.0 0.00 0.42 0.00 97 1012.1
20260507013016 58 0 0.0 0.0 0.00 0.42 0.00 97 1012.0
20260507012515 58 0 0.0 0.0 0.00 0.42 0.00 97 1011.9
20260507012015 58 0 0.0 0.0 0.00 0.42 0.00 97 1012.0
20260507011517 58 0 0.0 0.0 0.00 0.42 0.00 97 1012.2
20260507010515 58 0 0.0 0.0 0.00 0.42 0.00 97 1011.9
20260507005518 58 0 0.0 0.0 0.00 0.42 0.00 97 1012.0
20260507005015 58 0 0.0 0.0 0.00 0.42 0.00 97 1012.0
20260507004515 58 0 0.0 0.0 0.00 0.42 0.00 96 1011.9
20260507004019 58 0 0.0 0.0 0.00 0.42 0.00 96 1012.0
20260507003515 58 0 0.0 0.0 0.00 0.42 0.00 96 1011.8
20260507003016 58 0 0.0 0.0 0.00 0.42 0.00 96 1012.0
20260507002518 58 0 0.0 0.0 0.00 0.42 0.00 96 1012.2
20260507002015 58 0 0.0 0.0 0.00 0.42 0.00 96 1012.0
20260507001519 59 0 0.0 0.0 0.00 0.42 0.00 96 1012.0
20260507001018 59 0 0.0 0.0 0.00 0.42 0.00 96 1011.9
20260507000516 59 0 0.0 0.0 0.00 0.42 0.00 96 1012.2
20260507000016 59 0 0.0 0.0 0.00 0.42 0.00 96 1012.2
20260506235517 59 0 0.0 0.0 0.00 0.42 0.00 96 1012.0
20260506234518 59 0 0.0 0.0 0.00 0.42 0.00 96 1012.3
20260506234015 59 0 0.0 0.0 0.00 0.42 0.00 96 1012.2
20260506233515 59 68 0.0 2.0 0.00 0.42 0.00 96 1012.1
20260506233019 59 75 0.0 2.0 0.00 0.42 0.00 96 1012.3
20260506232515 59 75 0.0 2.0 0.00 0.42 0.00 96 1012.2
20260506232016 59 0 0.0 0.0 0.00 0.42 0.00 96 1012.2
20260506231518 59 0 0.0 0.0 0.00 0.42 0.00 96 1012.2
20260506231015 59 0 0.0 0.0 0.00 0.42 0.00 96 1012.2
20260506230514 58 90 0.0 2.0 0.00 0.42 0.00 96 1012.3
20260506225516 58 0 0.0 0.0 0.00 0.42 0.00 95 1012.3
20260506224518 58 0 0.0 0.0 0.00 0.42 0.00 95 1012.3
20260506224015 58 0 0.0 0.0 0.00 0.42 0.00 95 1012.5
20260506223515 58 0 0.0 0.0 0.00 0.42 0.00 95 1012.5
20260506223018 58 0 0.0 0.0 0.00 0.42 0.00 95 1012.2
20260506222515 58 90 0.0 2.0 0.00 0.42 0.00 95 1012.3
20260506222016 58 86 0.0 2.0 0.00 0.42 0.00 95 1012.2
20260506221517 58 78 0.0 2.0 0.00 0.42 0.00 95 1012.3
20260506221015 58 68 0.0 2.0 0.00 0.42 0.00 95 1012.2
20260506220515 58 0 0.0 0.0 0.00 0.42 0.00 96 1012.2
20260506220028 58 0 0.0 0.0 0.00 0.42 0.00 96 1012.3
20260506215514 58 0 0.0 0.0 0.00 0.42 0.42 96 1012.3
20260506215015 58 0 0.0 0.0 0.00 0.42 0.42 96 1012.4
20260506214516 58 0 0.0 0.0 0.00 0.42 0.42 96 1012.2
20260506214016 58 0 0.0 0.0 0.00 0.42 0.42 96 1012.5
20260506213518 58 0 0.0 0.0 0.00 0.42 0.42 96 1012.3
20260506213018 58 0 0.0 0.0 0.00 0.42 0.42 96 1012.2
20260506212518 58 0 0.0 0.0 0.00 0.42 0.42 96 1012.2
20260506212016 58 0 0.0 0.0 0.00 0.43 0.42 96 1012.4
20260506211516 58 0 0.0 0.0 0.00 0.43 0.42 96 1012.5
20260506211016 58 0 0.0 0.0 0.00 0.43 0.42 96 1012.4
20260506210515 58 0 0.0 0.0 0.00 0.44 0.42 96 1012.4
20260506205516 58 0 0.0 0.0 0.00 0.44 0.42 96 1012.4
20260506205016 58 248 0.0 2.0 0.00 0.44 0.42 96 1012.6
20260506204515 58 232 0.0 2.0 0.00 0.44 0.42 96 1012.5
20260506204015 58 236 0.0 3.0 0.00 0.44 0.42 96 1012.6
20260506203515 58 238 0.0 3.0 0.00 0.44 0.42 96 1012.4
20260506203016 58 225 0.0 2.0 0.00 0.44 0.42 96 1012.3
20260506202514 59 0 0.0 0.0 0.00 0.44 0.42 96 1012.3
20260506202015 59 0 0.0 0.0 0.00 0.46 0.42 97 1012.2
20260506201515 59 0 0.0 0.0 0.00 0.46 0.42 97 1012.1
20260506201016 59 0 0.0 0.0 0.00 0.47 0.42 96 1012.6
20260506200515 59 0 0.0 0.0 0.00 0.47 0.42 96 1012.1
20260506200016 59 248 0.0 2.0 0.00 0.47 0.42 96 1012.4
20260506195515 59 249 0.0 2.0 0.00 0.48 0.42 96 1012.2
20260506194514 59 181 0.0 2.0 0.00 0.49 0.42 96 1012.0
20260506194015 59 0 0.0 0.0 0.00 0.49 0.42 96 1012.0
20260506193515 59 229 0.0 2.0 0.00 0.49 0.42 96 1011.9
20260506193016 60 246 0.0 2.0 0.00 0.49 0.42 96 1011.8
20260506192016 60 232 1.0 8.0 0.00 0.49 0.42 96 1011.6
20260506191515 60 233 2.0 8.0 0.00 0.49 0.42 96 1011.6
20260506191016 60 237 2.0 6.0 0.00 0.49 0.42 96 1011.5
20260506190515 60 244 2.0 6.0 0.00 0.49 0.42 96 1011.3
20260506190016 60 244 1.0 6.0 0.00 0.50 0.42 96 1011.3
20260506185518 60 258 1.0 3.0 0.00 0.51 0.42 96 1011.3
20260506185016 60 277 1.0 5.0 0.00 0.51 0.42 96 1011.2
20260506184515 60 250 1.0 5.0 0.00 0.51 0.42 96 1011.3
20260506184017 60 245 1.0 5.0 0.00 0.51 0.42 96 1011.4
20260506182517 60 213 1.0 5.0 0.00 0.51 0.42 96 1011.2
20260506182015 60 227 1.0 5.0 0.00 0.51 0.42 96 1011.4
20260506181515 60 293 0.0 3.0 0.00 0.51 0.42 96 1011.3
20260506181018 60 259 1.0 5.0 0.00 0.51 0.42 96 1011.4
20260506180516 60 248 1.0 6.0 0.00 0.51 0.42 96 1011.3
20260506180019 60 235 1.0 6.0 0.00 0.51 0.42 96 1011.0
20260506175516 60 224 1.0 6.0 0.00 0.51 0.42 96 1011.1
20260506174515 60 244 1.0 6.0 0.00 0.51 0.42 96 1011.3
20260506174016 60 244 1.0 6.0 0.00 0.51 0.42 96 1011.2
20260506173515 60 253 1.0 6.0 0.00 0.51 0.42 96 1011.3
20260506173015 60 253 1.0 6.0 0.00 0.51 0.42 96 1011.2
20260506172515 60 246 1.0 5.0 0.00 0.51 0.42 96 1010.8
20260506172015 60 245 1.0 5.0 0.00 0.51 0.42 96 1010.9
20260506171515 60 251 1.0 8.0 0.00 0.51 0.42 96 1011.1
20260506170515 60 237 2.0 6.0 0.00 0.51 0.42 96 1010.7
20260506170019 60 241 2.0 8.0 0.00 0.51 0.42 96 1010.9
20260506165515 60 246 2.0 8.0 0.00 0.52 0.42 96 1010.8
20260506165015 60 246 2.0 10.0 0.01 0.52 0.42 96 1010.9
20260506164515 60 245 2.0 10.0 0.01 0.52 0.42 96 1010.8
20260506164015 60 244 1.0 9.0 0.03 0.52 0.42 96 1010.7
20260506163515 60 245 1.0 6.0 0.03 0.52 0.42 96 1010.8
20260506163015 60 238 1.0 6.0 0.03 0.52 0.42 95 1010.7
20260506162515 60 241 1.0 6.0 0.04 0.52 0.42 95 1010.9
20260506162015 60 252 2.0 8.0 0.06 0.52 0.42 95 1010.9
20260506161515 60 245 2.0 8.0 0.07 0.52 0.42 95 1011.1
20260506161015 60 230 2.0 8.0 0.07 0.52 0.42 95 1010.9
20260506160016 59 250 3.0 9.0 0.07 0.52 0.42 95 1010.9
20260506155515 60 244 3.0 9.0 0.07 0.52 0.42 95 1010.8
20260506155019 60 225 3.0 11.0 0.06 0.51 0.41 95 1011.0
20260506154519 60 213 2.0 11.0 0.06 0.51 0.41 95 1010.8
20260506154015 61 254 1.0 5.0 0.03 0.49 0.39 95 1010.6
20260506153515 61 248 2.0 6.0 0.03 0.49 0.39 94 1011.0
20260506153015 61 264 1.0 6.0 0.03 0.49 0.39 94 1010.9
20260506152016 61 254 1.0 6.0 0.01 0.48 0.37 93 1011.1
20260506151016 61 246 0.0 6.0 0.00 0.48 0.36 93 1010.8
20260506150015 61 319 0.0 3.0 0.00 0.48 0.36 93 1011.0
20260506145515 62 301 0.0 3.0 0.00 0.48 0.36 93 1011.0
20260506145015 62 48 0.0 2.0 0.00 0.48 0.36 93 1011.0
20260506144516 62 127 0.0 3.0 0.00 0.48 0.36 93 1010.9
20260506144021 62 257 1.0 5.0 0.00 0.49 0.36 93 1011.0
20260506143514 62 271 1.0 5.0 0.00 0.49 0.36 93 1011.2
20260506143019 62 284 0.0 3.0 0.00 0.49 0.36 93 1011.4
20260506142515 62 293 1.0 5.0 0.00 0.50 0.36 93 1011.3
20260506142015 61 283 1.0 6.0 0.01 0.51 0.36 93 1011.1
20260506141515 61 263 1.0 6.0 0.01 0.51 0.36 92 1011.4
20260506140015 61 246 0.0 5.0 0.01 0.52 0.36 93 1011.5
20260506135516 61 260 0.0 3.0 0.01 0.52 0.36 93 1011.5
20260506135017 61 252 1.0 8.0 0.01 0.53 0.36 93 1011.6
20260506134516 61 252 2.0 8.0 0.01 0.54 0.36 92 1011.6
20260506134017 61 264 1.0 8.0 0.01 0.56 0.36 92 1011.6
20260506133515 61 247 1.0 9.0 0.01 0.58 0.36 93 1011.5
20260506133015 61 245 2.0 9.0 0.01 0.58 0.36 93 1011.8
20260506132519 61 242 2.0 8.0 0.01 0.59 0.36 93 1011.6
20260506132016 61 247 3.0 8.0 0.00 0.59 0.34 93 1011.7
20260506131515 61 250 3.0 9.0 0.00 0.61 0.34 93 1011.8
20260506131015 61 254 3.0 9.0 0.00 0.62 0.34 92 1012.0
20260506130514 61 269 3.0 9.0 0.00 0.63 0.34 93 1011.9
20260506130016 61 248 4.0 9.0 0.00 0.63 0.34 93 1012.0
20260506125015 61 252 5.0 13.0 0.00 0.64 0.34 92 1012.0
20260506124514 61 255 5.0 10.0 0.00 0.66 0.34 91 1011.9
20260506124014 61 259 5.0 10.0 0.00 0.66 0.34 90 1011.8
20260506123515 61 255 4.0 10.0 0.00 0.66 0.34 91 1011.9
20260506122015 61 258 3.0 9.0 0.00 0.66 0.34 91 1011.9
20260506121016 62 251 2.0 8.0 0.01 0.66 0.34 91 1011.8
20260506120516 62 225 2.0 8.0 0.01 0.66 0.34 91 1011.8
20260506120015 62 224 3.0 10.0 0.01 0.66 0.34 91 1011.9
20260506115017 61 263 4.0 10.0 0.01 0.66 0.34 92 1011.8
20260506114515 61 264 3.0 8.0 0.01 0.66 0.34 94 1011.9
20260506114015 61 269 2.0 8.0 0.01 0.66 0.34 93 1012.0
20260506113516 61 260 2.0 8.0 0.02 0.66 0.34 94 1012.1
20260506112515 61 261 2.0 6.0 0.02 0.66 0.34 94 1012.1
20260506111518 61 249 3.0 8.0 0.01 0.66 0.33 94 1012.1
20260506111015 61 258 2.0 6.0 0.04 0.66 0.33 94 1012.1
20260506110516 61 244 3.0 11.0 0.04 0.66 0.33 94 1012.3
20260506110019 61 262 4.0 11.0 0.04 0.66 0.33 94 1012.2
20260506105515 61 265 3.0 9.0 0.04 0.66 0.33 95 1012.3
20260506105018 60 244 2.0 8.0 0.04 0.66 0.33 95 1012.3
20260506104514 61 231 0.0 5.0 0.04 0.66 0.33 95 1012.4
20260506104015 61 232 0.0 3.0 0.04 0.66 0.33 95 1012.3
20260506103515 61 254 0.0 3.0 0.03 0.64 0.32 95 1012.5
20260506103015 61 260 0.0 3.0 0.03 0.64 0.32 95 1012.3
20260506102015 60 248 1.0 5.0 0.04 0.64 0.32 95 1012.5
20260506100015 61 178 0.0 3.0 0.01 0.61 0.29 94 1012.5
20260506095518 61 254 0.0 3.0 0.01 0.61 0.29 94 1012.6
20260506095016 61 203 0.0 3.0 0.01 0.61 0.29 94 1012.8
20260506094514 61 203 0.0 3.0 0.01 0.61 0.29 94 1012.7
20260506094015 60 57 0.0 3.0 0.01 0.61 0.29 94 1012.7
20260506093515 60 62 0.0 5.0 0.01 0.61 0.29 94 1012.7
20260506093015 60 71 0.0 5.0 0.01 0.61 0.29 94 1012.7
20260506092515 60 76 1.0 5.0 0.00 0.60 0.28 93 1012.7
20260506092015 61 75 0.0 5.0 0.00 0.60 0.28 93 1012.8
20260506091515 61 48 0.0 5.0 0.00 0.60 0.28 93 1012.7
20260506090016 61 19 1.0 5.0 0.00 0.60 0.28 92 1012.5
20260506084515 61 334 1.0 6.0 0.01 0.60 0.28 95 1012.7
20260506083017 60 82 1.0 5.0 0.01 0.60 0.28 97 1012.4
20260506082515 61 76 0.0 5.0 0.01 0.60 0.28 97 1012.2
20260506082018 61 268 1.0 5.0 0.02 0.60 0.28 97 1012.2
20260506081516 60 278 0.0 5.0 0.02 0.60 0.28 97 1012.3
20260506081018 61 0 0.0 0.0 0.02 0.60 0.28 97 1012.2
20260506073514 59 79 1.0 8.0 0.01 0.59 0.27 97 1012.0
20260506073015 58 76 1.0 8.0 0.01 0.59 0.27 97 1012.0
20260506072514 58 74 2.0 6.0 0.02 0.59 0.27 97 1012.2
20260506072018 58 78 2.0 6.0 0.04 0.58 0.26 97 1012.3
20260506071514 58 92 1.0 6.0 0.06 0.58 0.26 97 1012.2
20260506071015 58 82 1.0 8.0 0.09 0.58 0.26 97 1012.4
20260506070514 58 71 3.0 8.0 0.11 0.58 0.26 97 1012.3
20260506062515 58 84 1.0 6.0 0.24 0.57 0.24 96 1012.6
20260506062017 58 79 2.0 6.0 0.21 0.53 0.21 96 1012.4
20260506061517 58 71 2.0 6.0 0.19 0.51 0.19 96 1012.4
20260506061018 58 72 2.0 6.0 0.17 0.49 0.18 96 1012.2
20260506051018 58 70 1.0 6.0 0.00 0.32 0.00 95 1012.5
20260506050514 58 74 1.0 6.0 0.00 0.32 0.00 95 1012.4
20260506045015 58 65 2.0 6.0 0.00 0.32 0.00 96 1012.4
20260506044514 58 66 1.0 5.0 0.00 0.32 0.00 96 1012.4
20260506044016 58 60 1.0 3.0 0.00 0.32 0.00 96 1012.4
20260506043514 57 70 1.0 6.0 0.00 0.32 0.00 96 1012.4
20260506043015 57 71 2.0 6.0 0.00 0.32 0.00 96 1012.5
20260506042515 57 62 2.0 6.0 0.00 0.32 0.00 96 1012.5
20260506042015 57 56 1.0 6.0 0.00 0.32 0.00 96 1012.3
20260506041514 57 66 1.0 3.0 0.00 0.32 0.00 97 1012.4
20260506040015 57 57 0.0 3.0 0.00 0.32 0.00 97 1012.5
20260506035513 57 65 0.0 3.0 0.00 0.32 0.00 97 1012.6
20260506035015 57 66 1.0 3.0 0.00 0.32 0.00 97 1013.0
20260506034014 57 72 1.0 6.0 0.00 0.32 0.00 97 1012.5
20260506033514 57 73 0.0 3.0 0.00 0.32 0.00 97 1012.7
20260506033015 57 67 1.0 3.0 0.00 0.32 0.00 96 1012.5
20260506032514 57 68 1.0 3.0 0.00 0.32 0.00 96 1012.9
20260506032015 57 70 2.0 6.0 0.00 0.32 0.00 96 1012.6
20260506031514 57 70 1.0 6.0 0.00 0.32 0.00 96 1013.0
20260506031015 57 63 0.0 3.0 0.00 0.32 0.00 96 1012.6
20260506030514 57 68 0.0 5.0 0.00 0.32 0.00 96 1012.7
20260506030015 57 71 0.0 5.0 0.00 0.32 0.00 96 1013.1
20260506025513 57 68 1.0 3.0 0.00 0.32 0.00 96 1013.0
20260506025015 57 70 1.0 5.0 0.00 0.32 0.00 96 1013.0
20260506023514 57 0 0.0 0.0 0.00 0.32 0.00 97 1013.1
20260506023014 57 68 0.0 3.0 0.00 0.32 0.00 97 1013.0
20260506022514 57 62 0.0 3.0 0.00 0.32 0.00 97 1013.2
20260506022014 57 68 0.0 3.0 0.00 0.32 0.00 97 1013.3
20260506021514 57 75 0.0 3.0 0.00 0.32 0.00 97 1013.2
20260506021015 57 39 0.0 3.0 0.00 0.32 0.00 97 1013.1
20260506020515 57 51 0.0 3.0 0.00 0.32 0.00 97 1013.2
20260506020014 57 68 0.0 3.0 0.00 0.32 0.00 97 1013.2
20260506015516 57 68 0.0 3.0 0.00 0.32 0.00 97 1013.4
20260506014514 57 68 0.0 3.0 0.00 0.32 0.00 97 1013.3